Time,TemperatureF,DewpointF,PressureIn,WindDirection,WindDirectionDegrees,WindSpeedMPH,WindSpeedGustMPH,Humidity,HourlyPrecipIn,Conditions,Clouds,dailyrainin,SoftwareType,DateUTC
2013-01-13 00:01:00,42.2,40.4,29.56,WNW,293,2.7,3.4,93,0.00,,,0.00,WSDL version 342,2013-01-13 05:01:00,
2013-01-13 00:03:00,42.1,40.4,29.56,WNW,293,2.5,3.4,93,0.00,,,0.00,WSDL version 342,2013-01-13 05:03:00,
2013-01-13 00:05:00,42.1,40.3,29.56,WNW,293,1.9,3.4,93,0.00,,,0.00,WSDL version 342,2013-01-13 05:05:00,
2013-01-13 00:10:00,42.0,40.3,29.56,WNW,293,1.6,3.8,93,0.00,,,0.00,WSDL version 342,2013-01-13 05:10:00,
2013-01-13 00:15:00,41.9,40.1,29.53,WNW,293,0.0,3.8,93,0.00,,,0.00,WSDL version 342,2013-01-13 05:15:00,
2013-01-13 00:20:00,41.9,40.1,29.53,WNW,293,2.1,2.7,93,0.00,,,0.00,WSDL version 342,2013-01-13 05:20:00,
2013-01-13 00:25:00,41.8,40.0,29.53,West,270,1.2,2.7,93,0.00,,,0.00,WSDL version 342,2013-01-13 05:25:00,
2013-01-13 00:30:00,41.7,40.2,29.56,West,270,2.0,2.9,94,0.00,,,0.00,WSDL version 342,2013-01-13 05:30:00,
2013-01-13 00:35:00,41.6,40.1,29.56,WNW,293,1.4,2.9,94,0.00,,,0.00,WSDL version 342,2013-01-13 05:35:00,
2013-01-13 00:40:00,41.5,40.1,29.56,WNW,293,0.0,2.0,94,0.00,,,0.00,WSDL version 342,2013-01-13 05:40:00,
2013-01-13 00:45:00,41.5,40.1,29.53,WNW,293,0.0,1.6,94,0.00,,,0.00,WSDL version 342,2013-01-13 05:45:00,
2013-01-13 00:50:00,41.5,40.2,29.53,WNW,293,0.0,0.0,96,0.00,,,0.00,WSDL version 342,2013-01-13 05:50:00,
2013-01-13 00:55:00,41.5,40.4,29.53,NE,45,0.0,0.0,96,0.00,,,0.00,WSDL version 342,2013-01-13 05:55:00,
2013-01-13 01:00:00,41.5,40.4,29.53,NE,45,0.0,0.0,96,0.00,,,0.00,WSDL version 342,2013-01-13 06:00:00,
2013-01-13 01:06:00,41.5,40.4,29.53,NE,45,0.0,0.0,96,0.00,,,0.00,WSDL version 342,2013-01-13 06:06:00,
2013-01-13 01:11:00,41.5,40.4,29.53,NE,45,0.0,0.0,96,0.00,,,0.00,WSDL version 342,2013-01-13 06:11:00,
2013-01-13 01:16:00,41.5,40.4,29.53,NE,45,0.0,0.0,97,0.00,,,0.00,WSDL version 342,2013-01-13 06:16:00,
2013-01-13 01:21:00,41.5,40.7,29.53,ESE,113,0.0,0.0,97,-99.99,,,-99.99,WSDL version 342,2013-01-13 06:21:00,
2013-01-13 01:26:00,41.4,40.5,29.53,East,90,1.1,1.6,97,0.00,,,0.00,WSDL version 342,2013-01-13 06:26:00,
2013-01-13 01:31:00,41.4,40.5,29.50,East,90,1.2,2.0,97,0.00,,,0.00,WSDL version 342,2013-01-13 06:31:00,
2013-01-13 01:36:00,41.4,40.5,29.50,East,90,1.2,2.0,97,0.00,,,0.00,WSDL version 342,2013-01-13 06:36:00,
2013-01-13 01:41:00,41.4,40.8,29.50,East,98,1.8,2.5,98,-99.99,,,-99.99,WSDL version 342,2013-01-13 06:41:00,
2013-01-13 01:46:00,41.4,40.8,29.50,East,90,1.3,2.5,98,-99.99,,,-99.99,WSDL version 342,2013-01-13 06:46:00,
2013-01-13 01:51:00,41.4,41.0,29.50,East,90,1.9,2.2,99,0.00,,,0.00,WSDL version 342,2013-01-13 06:51:00,
2013-01-13 01:57:00,41.4,41.1,29.50,East,90,1.8,2.7,99,0.00,,,0.00,WSDL version 342,2013-01-13 06:57:00,
2013-01-13 02:02:00,41.5,41.3,29.50,ESE,106,2.3,2.9,100,0.00,,,0.00,WSDL version 342,2013-01-13 07:02:00,
2013-01-13 02:07:00,41.5,41.5,29.50,ESE,113,2.0,2.9,100,0.00,,,0.00,WSDL version 342,2013-01-13 07:07:00,
2013-01-13 02:12:00,41.5,41.5,29.50,SE,135,2.7,3.1,100,0.00,,,0.00,WSDL version 342,2013-01-13 07:12:00,
2013-01-13 02:17:00,41.5,41.5,29.53,ESE,113,0.0,3.1,100,0.00,,,0.00,WSDL version 342,2013-01-13 07:17:00,
2013-01-13 02:23:00,41.5,41.5,29.53,ESE,113,0.0,1.3,100,0.00,,,0.00,WSDL version 342,2013-01-13 07:23:00,
2013-01-13 02:28:00,41.5,41.5,29.53,ESE,113,1.0,1.6,100,0.00,,,0.00,WSDL version 342,2013-01-13 07:28:00,
2013-01-13 02:35:00,41.5,41.5,29.53,SSW,203,0.4,1.6,100,0.00,,,0.00,WSDL version 342,2013-01-13 07:35:00,
2013-01-13 02:40:00,41.5,41.5,29.53,SSW,203,0.0,1.3,100,0.00,,,0.00,WSDL version 342,2013-01-13 07:40:00,
2013-01-13 02:45:00,41.5,41.5,29.56,South,180,0.6,2.5,100,0.00,,,0.00,WSDL version 342,2013-01-13 07:45:00,
2013-01-13 02:50:00,41.5,41.3,29.56,SSE,151,0.0,2.5,99,0.00,,,0.00,WSDL version 342,2013-01-13 07:50:00,
2013-01-13 02:55:00,41.5,41.3,29.56,SSW,203,0.0,2.0,99,0.00,,,0.00,WSDL version 342,2013-01-13 07:55:00,
2013-01-13 03:00:00,41.5,41.3,29.53,SSE,150,0.7,2.7,99,-99.99,,,-99.99,WSDL version 342,2013-01-13 08:00:00,
2013-01-13 03:05:00,41.5,41.3,29.53,SSE,158,0.0,2.7,99,0.00,,,0.00,WSDL version 342,2013-01-13 08:05:00,
2013-01-13 03:10:00,41.5,41.3,29.53,South,183,0.3,2.2,99,0.00,,,0.00,WSDL version 342,2013-01-13 08:10:00,
2013-01-13 03:15:00,41.5,41.0,29.56,SSW,205,0.5,2.0,98,0.00,,,0.00,WSDL version 342,2013-01-13 08:15:00,
2013-01-13 03:21:00,41.5,41.0,29.56,SSW,203,0.0,2.0,98,0.00,,,0.00,WSDL version 342,2013-01-13 08:21:00,
2013-01-13 03:26:00,41.5,41.0,29.56,SSE,160,0.0,1.6,98,0.00,,,0.00,WSDL version 342,2013-01-13 08:26:00,
2013-01-13 03:32:00,41.4,40.8,29.53,East,90,0.0,1.6,98,0.00,,,0.00,WSDL version 342,2013-01-13 08:32:00,
2013-01-13 03:37:00,41.4,40.8,29.53,ESE,113,0.0,1.6,98,0.00,,,0.00,WSDL version 342,2013-01-13 08:37:00,
2013-01-13 03:43:00,41.4,40.8,29.53,ESE,113,1.2,2.0,98,0.00,,,0.00,WSDL version 342,2013-01-13 08:43:00,
2013-01-13 03:48:00,41.4,40.8,29.53,ESE,113,0.0,2.0,98,0.00,,,0.00,WSDL version 342,2013-01-13 08:48:00,
2013-01-13 03:53:00,41.4,40.8,29.53,SE,125,0.0,0.0,98,0.00,,,0.00,WSDL version 342,2013-01-13 08:53:00,
2013-01-13 03:58:00,41.2,40.6,29.53,SSW,203,0.0,1.3,98,0.00,,,0.00,WSDL version 342,2013-01-13 08:58:00,
2013-01-13 04:03:00,41.2,40.6,29.53,ESE,109,1.3,2.0,98,-99.99,,,-99.99,WSDL version 342,2013-01-13 09:03:00,
2013-01-13 04:08:00,41.2,40.9,29.53,East,90,0.8,2.5,99,0.00,,,0.00,WSDL version 342,2013-01-13 09:08:00,
2013-01-13 04:13:00,41.2,40.9,29.50,East,90,0.4,2.5,99,0.00,,,0.00,WSDL version 342,2013-01-13 09:13:00,
2013-01-13 04:18:00,41.2,40.9,29.50,SE,135,1.4,2.2,99,0.00,,,0.00,WSDL version 342,2013-01-13 09:18:00,
2013-01-13 04:23:00,41.2,40.9,29.50,ESE,113,0.2,2.2,99,-99.99,,,-99.99,WSDL version 342,2013-01-13 09:23:00,
2013-01-13 04:29:00,41.2,40.9,29.50,ESE,113,0.6,2.0,99,0.00,,,0.00,WSDL version 342,2013-01-13 09:29:00,
2013-01-13 04:34:00,41.2,40.9,29.50,ESE,113,0.0,2.0,99,0.00,,,0.00,WSDL version 342,2013-01-13 09:34:00,
2013-01-13 04:39:00,41.2,41.0,29.50,ESE,113,0.0,0.0,100,0.00,,,0.00,WSDL version 342,2013-01-13 09:39:00,
2013-01-13 04:44:00,41.2,41.2,29.50,East,90,1.2,2.0,100,-99.99,,,-99.99,WSDL version 342,2013-01-13 09:44:00,
2013-01-13 04:49:00,41.2,41.2,29.50,East,90,0.0,2.0,100,0.00,,,0.00,WSDL version 342,2013-01-13 09:49:00,
2013-01-13 04:54:00,41.2,41.2,29.50,East,90,0.0,1.1,100,0.00,,,0.00,WSDL version 342,2013-01-13 09:54:00,
2013-01-13 04:59:00,41.2,41.2,29.50,East,90,0.5,2.0,100,0.00,,,0.00,WSDL version 342,2013-01-13 09:59:00,
2013-01-13 05:04:00,41.2,41.2,29.50,East,98,0.7,2.2,100,0.00,,,0.00,WSDL version 342,2013-01-13 10:04:00,
2013-01-13 05:09:00,41.2,41.2,29.50,ESE,113,1.2,2.2,100,0.00,,,0.00,WSDL version 342,2013-01-13 10:09:00,
2013-01-13 05:14:00,41.2,41.2,29.50,ESE,113,0.3,1.6,100,0.00,,,0.00,WSDL version 342,2013-01-13 10:14:00,
2013-01-13 05:19:00,41.2,41.2,29.50,East,90,0.3,1.3,100,0.00,,,0.00,WSDL version 342,2013-01-13 10:19:00,
2013-01-13 05:24:00,41.2,41.2,29.50,ENE,71,1.7,2.5,100,0.00,,,0.00,WSDL version 342,2013-01-13 10:24:00,
2013-01-13 05:29:00,41.2,41.2,29.50,East,90,1.9,2.5,100,0.00,,,0.00,WSDL version 342,2013-01-13 10:29:00,
2013-01-13 05:34:00,41.2,41.2,29.50,ESE,113,1.5,2.2,100,0.00,,,0.00,WSDL version 342,2013-01-13 10:34:00,
2013-01-13 05:39:00,41.2,41.2,29.50,SE,125,1.6,2.5,100,0.00,,,0.00,WSDL version 342,2013-01-13 10:39:00,
2013-01-13 05:44:00,41.2,41.2,29.50,SE,128,1.2,2.5,100,-99.99,,,-99.99,WSDL version 342,2013-01-13 10:44:00,
2013-01-13 05:49:00,41.2,41.2,29.50,ESE,113,0.0,2.0,100,0.00,,,0.00,WSDL version 342,2013-01-13 10:49:00,
2013-01-13 05:54:00,41.2,41.2,29.50,SSE,149,0.0,1.3,100,0.00,,,0.00,WSDL version 342,2013-01-13 10:54:00,
2013-01-13 05:59:00,41.2,41.2,29.50,SSE,152,0.0,0.0,100,0.00,,,0.00,WSDL version 342,2013-01-13 10:59:00,
2013-01-13 06:04:00,41.2,41.2,29.50,East,90,0.0,0.0,100,0.00,,,0.00,WSDL version 342,2013-01-13 11:04:00,
2013-01-13 06:09:00,41.2,41.2,29.50,East,90,2.2,2.7,100,0.00,,,0.00,WSDL version 342,2013-01-13 11:09:00,
2013-01-13 06:14:00,41.2,41.2,29.50,East,93,2.2,2.7,100,0.00,,,0.00,WSDL version 342,2013-01-13 11:14:00,
2013-01-13 06:19:00,41.2,41.2,29.50,ESE,103,1.7,2.7,100,0.00,,,0.00,WSDL version 342,2013-01-13 11:19:00,
2013-01-13 06:25:00,41.4,41.4,29.50,East,100,2.2,3.1,100,0.00,,,0.00,WSDL version 342,2013-01-13 11:25:00,
2013-01-13 06:30:00,41.4,41.4,29.50,ESE,109,2.6,3.1,100,0.00,,,0.00,WSDL version 342,2013-01-13 11:30:00,
2013-01-13 06:35:00,41.4,41.4,29.50,East,100,2.5,3.4,100,0.00,,,0.00,WSDL version 342,2013-01-13 11:35:00,
2013-01-13 06:40:00,41.4,41.4,29.50,East,96,2.5,3.4,100,0.00,,,0.00,WSDL version 342,2013-01-13 11:40:00,
2013-01-13 06:45:00,41.4,41.4,29.50,East,100,2.5,3.1,100,0.00,,,0.00,WSDL version 342,2013-01-13 11:45:00,
2013-01-13 06:50:00,41.4,41.4,29.50,ESE,109,1.2,3.1,100,0.00,,,0.00,WSDL version 342,2013-01-13 11:50:00,
2013-01-13 06:55:00,41.4,41.4,29.50,SE,128,0.5,2.2,100,0.00,,,0.00,WSDL version 342,2013-01-13 11:55:00,
2013-01-13 07:00:00,41.4,41.4,29.50,ESE,117,1.4,2.5,100,0.00,,,0.00,WSDL version 342,2013-01-13 12:00:00,
2013-01-13 07:05:00,41.4,41.4,29.50,ESE,105,1.3,2.5,100,0.00,,,0.00,WSDL version 342,2013-01-13 12:05:00,
2013-01-13 07:10:00,41.4,41.4,29.50,ESE,113,0.1,2.0,100,0.00,,,0.00,WSDL version 342,2013-01-13 12:10:00,
2013-01-13 07:15:00,41.4,41.4,29.50,ESE,113,0.0,2.0,100,0.00,,,0.00,WSDL version 342,2013-01-13 12:15:00,
2013-01-13 07:20:00,41.5,41.5,29.50,ESE,113,0.0,1.3,100,-99.99,,,-99.99,WSDL version 342,2013-01-13 12:20:00,
2013-01-13 07:25:00,41.5,41.5,29.50,ESE,113,0.0,0.0,100,0.00,,,0.00,WSDL version 342,2013-01-13 12:25:00,
2013-01-13 07:30:00,41.5,41.5,29.50,ESE,113,0.0,0.0,100,0.00,,,0.00,WSDL version 342,2013-01-13 12:30:00,
2013-01-13 07:35:00,41.5,41.5,29.50,ESE,113,0.0,0.0,100,0.00,,,0.00,WSDL version 342,2013-01-13 12:35:00,
2013-01-13 07:41:00,41.5,41.5,29.50,East,90,0.3,2.2,100,0.00,,,0.00,WSDL version 342,2013-01-13 12:41:00,
2013-01-13 07:47:00,41.5,41.5,29.50,East,90,1.6,2.5,100,-99.99,,,-99.99,WSDL version 342,2013-01-13 12:47:00,
2013-01-13 07:52:00,41.6,41.6,29.50,East,98,1.2,2.5,100,0.00,,,0.00,WSDL version 342,2013-01-13 12:52:00,
2013-01-13 07:57:00,41.7,41.7,29.50,East,100,0.8,2.2,100,0.00,,,0.00,WSDL version 342,2013-01-13 12:57:00,
2013-01-13 08:02:00,41.7,41.7,29.50,East,90,1.3,2.2,100,0.00,,,0.00,WSDL version 342,2013-01-13 13:02:00,
2013-01-13 08:07:00,41.7,41.7,29.50,East,98,1.4,2.0,100,0.00,,,0.00,WSDL version 342,2013-01-13 13:07:00,
2013-01-13 08:12:00,41.9,41.9,29.50,East,90,1.2,2.0,100,0.00,,,0.00,WSDL version 342,2013-01-13 13:12:00,
2013-01-13 08:17:00,41.9,41.9,29.50,East,90,0.2,2.0,100,0.00,,,0.00,WSDL version 342,2013-01-13 13:17:00,
2013-01-13 08:23:00,42.1,42.1,29.50,East,100,0.0,1.6,100,0.00,,,0.00,WSDL version 342,2013-01-13 13:23:00,
2013-01-13 08:28:00,42.2,42.2,29.53,ESE,113,0.0,1.6,100,-99.99,,,-99.99,WSDL version 342,2013-01-13 13:28:00,
2013-01-13 08:33:00,42.4,42.4,29.53,ESE,113,0.0,1.6,100,0.00,,,0.00,WSDL version 342,2013-01-13 13:33:00,
2013-01-13 08:38:00,42.5,42.5,29.53,East,93,0.0,1.3,100,0.00,,,0.00,WSDL version 342,2013-01-13 13:38:00,
2013-01-13 08:43:00,42.6,42.6,29.53,ESE,116,0.0,1.3,100,0.00,,,0.00,WSDL version 342,2013-01-13 13:43:00,
2013-01-13 08:49:00,42.6,42.6,29.53,East,100,1.4,2.7,100,0.00,,,0.00,WSDL version 342,2013-01-13 13:49:00,
2013-01-13 08:54:00,42.7,42.7,29.53,ESE,109,1.1,2.5,100,0.00,,,0.00,WSDL version 342,2013-01-13 13:54:00,
2013-01-13 08:59:00,43.0,43.0,29.50,ESE,106,0.6,2.2,100,0.00,,,0.00,WSDL version 342,2013-01-13 13:59:00,
2013-01-13 09:04:00,43.2,43.2,29.50,East,90,2.0,2.7,100,0.00,,,0.00,WSDL version 342,2013-01-13 14:04:00,
2013-01-13 09:09:00,43.3,43.3,29.50,SE,124,0.0,2.7,100,0.00,,,0.00,WSDL version 342,2013-01-13 14:09:00,
2013-01-13 09:14:00,43.3,43.3,29.53,ESE,119,1.9,3.4,100,0.00,,,0.00,WSDL version 342,2013-01-13 14:14:00,
2013-01-13 09:19:00,43.3,43.3,29.53,ENE,76,1.9,3.4,100,-99.99,,,-99.99,WSDL version 342,2013-01-13 14:19:00,
2013-01-13 09:24:00,43.4,43.4,29.53,ESE,122,0.0,2.5,100,0.00,,,0.00,WSDL version 342,2013-01-13 14:24:00,
2013-01-13 09:29:00,43.4,43.4,29.56,SE,135,1.6,2.7,100,0.00,,,0.00,WSDL version 342,2013-01-13 14:29:00,
2013-01-13 09:34:00,43.5,43.5,29.56,ESE,113,0.0,2.7,100,0.00,,,0.00,WSDL version 342,2013-01-13 14:34:00,
2013-01-13 09:39:00,43.5,43.5,29.56,NE,45,0.0,2.2,100,0.00,,,0.00,WSDL version 342,2013-01-13 14:39:00,
2013-01-13 09:44:00,43.5,43.5,29.56,East,90,0.0,0.0,100,-99.99,,,-99.99,WSDL version 342,2013-01-13 14:44:00,
2013-01-13 09:49:00,43.5,43.5,29.53,NE,40,0.0,0.0,100,0.00,,,0.00,WSDL version 342,2013-01-13 14:49:00,
2013-01-13 09:54:00,43.7,43.7,29.53,NE,55,0.0,2.2,100,0.00,,,0.00,WSDL version 342,2013-01-13 14:54:00,
2013-01-13 09:59:00,43.6,43.6,29.53,SSW,206,0.0,3.1,100,0.00,,,0.00,WSDL version 342,2013-01-13 14:59:00,
2013-01-13 10:04:00,43.7,43.7,29.53,ESE,113,0.9,3.1,100,0.00,,,0.00,WSDL version 342,2013-01-13 15:04:00,
2013-01-13 10:09:00,43.8,43.8,29.53,East,100,1.2,2.5,100,0.00,,,0.00,WSDL version 342,2013-01-13 15:09:00,
2013-01-13 10:14:00,43.9,43.9,29.53,ESE,113,2.2,2.7,100,0.00,,,0.00,WSDL version 342,2013-01-13 15:14:00,
2013-01-13 10:19:00,43.8,43.8,29.53,East,90,2.1,3.6,100,0.00,,,0.00,WSDL version 342,2013-01-13 15:19:00,
2013-01-13 10:24:00,43.9,43.9,29.53,ESE,106,2.4,3.6,100,0.00,,,0.00,WSDL version 342,2013-01-13 15:24:00,
2013-01-13 10:29:00,44.0,44.0,29.56,ESE,115,0.0,2.9,100,0.00,,,0.00,WSDL version 342,2013-01-13 15:29:00,
2013-01-13 10:34:00,44.1,44.1,29.56,ENE,68,0.0,2.7,100,0.00,,,0.00,WSDL version 342,2013-01-13 15:34:00,
2013-01-13 10:39:00,44.1,44.1,29.56,East,87,2.4,2.9,100,0.00,,,0.00,WSDL version 342,2013-01-13 15:39:00,
2013-01-13 10:44:00,44.1,44.1,29.53,East,83,2.7,3.4,100,0.00,,,0.00,WSDL version 342,2013-01-13 15:44:00,
2013-01-13 10:49:00,44.2,44.2,29.53,ENE,70,2.0,3.4,100,0.00,,,0.00,WSDL version 342,2013-01-13 15:49:00,
2013-01-13 10:54:00,44.4,44.4,29.53,ENE,75,2.0,3.1,100,0.00,,,0.00,WSDL version 342,2013-01-13 15:54:00,
2013-01-13 10:59:00,44.4,44.4,29.53,East,100,1.9,3.1,100,0.00,,,0.00,WSDL version 342,2013-01-13 15:59:00,
2013-01-13 11:04:00,44.4,44.4,29.53,ESE,109,1.8,2.9,100,0.00,,,0.00,WSDL version 342,2013-01-13 16:04:00,
2013-01-13 11:09:00,44.4,44.4,29.53,East,90,2.7,3.6,100,0.00,,,0.00,WSDL version 342,2013-01-13 16:09:00,
2013-01-13 11:14:00,44.4,44.4,29.50,ESE,103,2.0,4.3,100,0.00,,,0.00,WSDL version 342,2013-01-13 16:14:00,
2013-01-13 11:19:00,44.4,44.4,29.50,East,93,2.5,4.3,100,-99.99,,,-99.99,WSDL version 342,2013-01-13 16:19:00,
2013-01-13 11:24:00,44.5,44.5,29.50,ESE,119,1.3,3.6,100,0.00,,,0.00,WSDL version 342,2013-01-13 16:24:00,
2013-01-13 11:29:00,44.6,44.6,29.53,ESE,113,0.0,2.5,100,0.00,,,0.00,WSDL version 342,2013-01-13 16:29:00,
2013-01-13 11:34:00,44.7,44.7,29.53,East,96,0.6,2.7,100,0.00,,,0.00,WSDL version 342,2013-01-13 16:34:00,
2013-01-13 11:39:00,44.8,44.8,29.53,East,96,1.7,3.1,100,0.00,,,0.00,WSDL version 342,2013-01-13 16:39:00,
2013-01-13 11:44:00,44.9,44.9,29.47,SE,125,2.2,3.6,100,0.00,,,0.00,WSDL version 342,2013-01-13 16:44:00,
2013-01-13 11:49:00,45.0,45.0,29.47,ESE,120,1.7,3.6,100,0.00,,,0.00,WSDL version 342,2013-01-13 16:49:00,
2013-01-13 11:54:00,45.1,45.1,29.47,East,96,1.1,2.7,100,0.00,,,0.00,WSDL version 342,2013-01-13 16:54:00,
2013-01-13 11:59:00,45.1,45.1,29.50,East,86,2.5,2.9,100,0.00,,,0.00,WSDL version 342,2013-01-13 16:59:00,
2013-01-13 12:04:00,45.3,45.3,29.50,East,96,2.4,3.4,100,0.00,,,0.00,WSDL version 342,2013-01-13 17:04:00,
2013-01-13 12:09:00,45.3,45.3,29.50,ENE,68,1.1,3.4,100,0.00,,,0.00,WSDL version 342,2013-01-13 17:09:00,
2013-01-13 12:14:00,45.4,45.4,29.50,NE,55,0.8,2.7,100,0.00,,,0.00,WSDL version 342,2013-01-13 17:14:00,
2013-01-13 12:19:00,45.5,45.5,29.50,ESE,110,1.8,2.7,100,0.00,,,0.00,WSDL version 342,2013-01-13 17:19:00,
2013-01-13 12:24:00,45.5,45.5,29.50,ENE,74,1.8,2.7,100,0.00,,,0.00,WSDL version 342,2013-01-13 17:24:00,
2013-01-13 12:29:00,45.4,45.4,29.50,East,98,1.4,2.9,100,0.00,,,0.00,WSDL version 342,2013-01-13 17:29:00,
2013-01-13 12:34:00,45.3,45.3,29.50,SSW,199,1.2,3.4,100,0.00,,,0.00,WSDL version 342,2013-01-13 17:34:00,
2013-01-13 12:40:00,45.3,45.3,29.50,SE,127,0.3,3.4,100,0.00,,,0.00,WSDL version 342,2013-01-13 17:40:00,
2013-01-13 12:45:00,45.3,45.3,29.50,ESE,105,1.8,2.5,100,0.00,,,0.00,WSDL version 342,2013-01-13 17:45:00,
2013-01-13 12:50:00,45.3,45.3,29.50,ESE,113,1.9,2.7,100,0.00,,,0.00,WSDL version 342,2013-01-13 17:50:00,
2013-01-13 12:55:00,45.3,45.3,29.50,ESE,106,2.2,3.4,100,0.00,,,0.00,WSDL version 342,2013-01-13 17:55:00,
2013-01-13 13:00:00,45.5,45.5,29.47,ESE,113,1.9,3.4,100,0.00,,,0.00,WSDL version 342,2013-01-13 18:00:00,
2013-01-13 13:05:00,45.5,45.5,29.47,ESE,113,1.8,2.9,100,0.00,,,0.00,WSDL version 342,2013-01-13 18:05:00,
2013-01-13 13:10:00,45.6,45.6,29.47,SE,125,2.4,3.4,100,-99.99,,,-99.99,WSDL version 342,2013-01-13 18:10:00,
2013-01-13 13:15:00,45.6,45.6,29.44,East,90,2.0,3.4,100,0.00,,,0.00,WSDL version 342,2013-01-13 18:15:00,
2013-01-13 13:20:00,45.9,45.9,29.44,East,93,2.4,3.1,100,0.00,,,0.00,WSDL version 342,2013-01-13 18:20:00,
2013-01-13 13:25:00,45.9,45.9,29.44,SE,132,2.2,3.1,100,0.00,,,0.00,WSDL version 342,2013-01-13 18:25:00,
2013-01-13 13:30:00,45.8,45.8,29.44,SE,135,1.9,3.6,100,0.00,,,0.00,WSDL version 342,2013-01-13 18:30:00,
2013-01-13 13:35:00,45.7,45.7,29.44,SE,141,1.4,3.6,100,0.00,,,0.00,WSDL version 342,2013-01-13 18:35:00,
2013-01-13 13:40:00,45.7,45.7,29.44,East,98,1.9,2.7,100,0.00,,,0.00,WSDL version 342,2013-01-13 18:40:00,
2013-01-13 13:45:00,45.7,45.7,29.47,ESE,104,0.5,2.7,100,0.00,,,0.00,WSDL version 342,2013-01-13 18:45:00,
2013-01-13 13:50:00,45.7,45.7,29.47,East,101,1.9,3.6,100,0.00,,,0.00,WSDL version 342,2013-01-13 18:50:00,
2013-01-13 13:55:00,45.7,45.7,29.47,East,84,2.3,3.6,100,0.00,,,0.00,WSDL version 342,2013-01-13 18:55:00,
2013-01-13 14:00:00,45.7,45.7,29.44,ENE,78,1.6,3.1,100,0.00,,,0.00,WSDL version 342,2013-01-13 19:00:00,
2013-01-13 14:06:00,45.7,45.7,29.44,ESE,122,1.6,3.1,100,0.00,,,0.00,WSDL version 342,2013-01-13 19:06:00,
2013-01-13 14:12:00,45.9,45.9,29.44,SE,143,0.5,3.1,100,-99.99,,,-99.99,WSDL version 342,2013-01-13 19:12:00,
2013-01-13 14:17:00,46.0,46.0,29.47,ESE,122,0.9,2.5,100,-99.99,,,-99.99,WSDL version 342,2013-01-13 19:17:00,
2013-01-13 14:22:00,46.0,46.0,29.47,SE,124,2.2,2.7,100,0.00,,,0.00,WSDL version 342,2013-01-13 19:22:00,
2013-01-13 14:27:00,46.2,46.2,29.47,SE,128,0.4,2.9,100,0.00,,,0.00,WSDL version 342,2013-01-13 19:27:00,
2013-01-13 14:32:00,46.1,46.1,29.47,ESE,115,1.3,3.1,100,0.00,,,0.00,WSDL version 342,2013-01-13 19:32:00,
2013-01-13 14:37:00,46.2,46.2,29.47,ESE,117,2.3,3.6,100,-99.99,,,-99.99,WSDL version 342,2013-01-13 19:37:00,
2013-01-13 14:42:00,46.0,46.0,29.47,SE,124,0.5,3.6,100,0.00,,,0.00,WSDL version 342,2013-01-13 19:42:00,
2013-01-13 14:47:00,46.2,46.2,29.47,ESE,103,1.6,2.7,100,-99.99,,,-99.99,WSDL version 342,2013-01-13 19:47:00,
2013-01-13 14:52:00,46.0,46.0,29.47,SE,124,1.2,2.7,100,0.00,,,0.00,WSDL version 342,2013-01-13 19:52:00,
2013-01-13 14:57:00,46.0,46.0,29.47,East,90,1.3,2.7,100,0.00,,,0.00,WSDL version 342,2013-01-13 19:57:00,
2013-01-13 15:03:00,46.0,46.0,29.44,East,101,1.1,2.7,100,0.00,,,0.00,WSDL version 342,2013-01-13 20:03:00,
2013-01-13 15:08:00,46.2,46.2,29.44,ESE,103,2.1,2.7,100,0.00,,,0.00,WSDL version 342,2013-01-13 20:08:00,
2013-01-13 15:13:00,46.2,46.2,29.44,East,90,1.9,2.7,100,0.00,,,0.00,WSDL version 342,2013-01-13 20:13:00,
2013-01-13 15:18:00,46.2,46.2,29.44,East,96,2.5,3.4,100,0.00,,,0.00,WSDL version 342,2013-01-13 20:18:00,
2013-01-13 15:23:00,46.2,46.2,29.44,ESE,122,1.6,4.7,100,0.00,,,0.00,WSDL version 342,2013-01-13 20:23:00,
2013-01-13 15:28:00,46.2,46.2,29.44,ESE,103,2.9,4.7,100,0.00,,,0.00,WSDL version 342,2013-01-13 20:28:00,
2013-01-13 15:33:00,46.2,46.2,29.44,ESE,113,2.3,4.3,100,-99.99,,,-99.99,WSDL version 342,2013-01-13 20:33:00,
2013-01-13 15:38:00,46.2,46.2,29.44,ESE,121,3.3,4.3,100,0.00,,,0.00,WSDL version 342,2013-01-13 20:38:00,
2013-01-13 15:43:00,46.2,46.2,29.44,SE,125,2.2,4.3,100,0.00,,,0.00,WSDL version 342,2013-01-13 20:43:00,
2013-01-13 15:48:00,46.3,46.3,29.44,ESE,115,2.0,3.1,100,0.00,,,0.00,WSDL version 342,2013-01-13 20:48:00,
2013-01-13 15:53:00,46.2,46.2,29.44,ESE,113,3.4,4.3,100,0.00,,,0.00,WSDL version 342,2013-01-13 20:53:00,
2013-01-13 15:58:00,46.2,46.2,29.44,East,98,1.8,4.3,100,0.00,,,0.00,WSDL version 342,2013-01-13 20:58:00,
2013-01-13 16:03:00,46.2,46.2,29.44,East,98,2.2,4.0,100,0.00,,,0.00,WSDL version 342,2013-01-13 21:03:00,
2013-01-13 16:08:00,46.2,46.2,29.44,ESE,116,2.2,3.4,100,-99.99,,,-99.99,WSDL version 342,2013-01-13 21:08:00,
2013-01-13 16:13:00,46.2,46.2,29.44,ESE,113,0.0,2.7,100,0.00,,,0.00,WSDL version 342,2013-01-13 21:13:00,
2013-01-13 16:18:00,46.2,46.2,29.44,ESE,115,2.9,3.6,100,0.00,,,0.00,WSDL version 342,2013-01-13 21:18:00,
2013-01-13 16:23:00,46.2,46.2,29.44,SSW,205,1.6,3.6,100,0.00,,,0.00,WSDL version 342,2013-01-13 21:23:00,
2013-01-13 16:28:00,46.2,46.2,29.44,ESE,118,1.0,3.6,100,0.00,,,0.00,WSDL version 342,2013-01-13 21:28:00,
2013-01-13 16:33:00,46.3,46.3,29.44,South,188,1.5,3.1,100,-99.99,,,-99.99,WSDL version 342,2013-01-13 21:33:00,
2013-01-13 16:38:00,46.4,46.4,29.44,SE,125,1.4,3.1,100,-99.99,,,-99.99,WSDL version 342,2013-01-13 21:38:00,
2013-01-13 16:43:00,46.3,46.3,29.44,South,188,0.3,2.7,100,0.00,,,0.00,WSDL version 342,2013-01-13 21:43:00,
2013-01-13 16:48:00,46.4,46.4,29.44,SSW,193,1.2,2.9,100,0.00,,,0.00,WSDL version 342,2013-01-13 21:48:00,
2013-01-13 16:54:00,46.4,46.4,29.44,East,80,0.0,2.9,100,0.00,,,0.00,WSDL version 342,2013-01-13 21:54:00,
2013-01-13 16:59:00,46.4,46.4,29.41,ESE,113,1.2,4.0,100,0.00,,,0.00,WSDL version 342,2013-01-13 21:59:00,
2013-01-13 17:04:00,46.4,46.4,29.41,SSE,154,0.0,4.0,100,-99.99,,,-99.99,WSDL version 342,2013-01-13 22:04:00,
2013-01-13 17:09:00,46.4,46.4,29.41,SSE,158,1.0,2.0,100,0.00,,,0.00,WSDL version 342,2013-01-13 22:09:00,
2013-01-13 17:14:00,46.4,46.4,29.44,East,90,2.2,2.9,100,0.00,,,0.00,WSDL version 342,2013-01-13 22:14:00,
2013-01-13 17:19:00,46.4,46.4,29.44,East,99,2.2,3.1,100,-99.99,,,-99.99,WSDL version 342,2013-01-13 22:19:00,
2013-01-13 17:24:00,46.4,46.4,29.44,ESE,116,2.0,3.6,100,0.00,,,0.00,WSDL version 342,2013-01-13 22:24:00,
2013-01-13 17:29:00,46.4,46.4,29.47,SE,132,1.8,3.6,100,0.00,,,0.00,WSDL version 342,2013-01-13 22:29:00,
2013-01-13 17:34:00,46.4,46.4,29.47,ESE,113,2.1,3.4,100,0.00,,,0.00,WSDL version 342,2013-01-13 22:34:00,
2013-01-13 17:39:00,46.4,46.4,29.47,ESE,118,1.8,3.6,100,0.00,,,0.00,WSDL version 342,2013-01-13 22:39:00,
2013-01-13 17:44:00,46.4,46.4,29.44,East,94,0.9,3.6,100,0.00,,,0.00,WSDL version 342,2013-01-13 22:44:00,
2013-01-13 17:49:00,46.4,46.4,29.44,SSW,203,1.0,3.1,100,0.00,,,0.00,WSDL version 342,2013-01-13 22:49:00,
2013-01-13 17:54:00,46.4,46.4,29.44,SSW,203,1.0,2.7,100,0.00,,,0.00,WSDL version 342,2013-01-13 22:54:00,
2013-01-13 17:59:00,46.4,46.4,29.44,NNE,16,0.5,2.7,100,0.00,,,0.00,WSDL version 342,2013-01-13 22:59:00,
2013-01-13 18:04:00,46.5,46.5,29.44,West,270,1.1,2.7,100,0.00,,,0.00,WSDL version 342,2013-01-13 23:04:00,
2013-01-13 18:09:00,46.6,46.6,29.44,WSW,248,0.0,2.9,100,-99.99,,,-99.99,WSDL version 342,2013-01-13 23:09:00,
2013-01-13 18:14:00,46.6,46.6,29.44,SSW,203,0.6,2.9,100,0.00,,,0.00,WSDL version 342,2013-01-13 23:14:00,
2013-01-13 18:19:00,46.6,46.6,29.44,SSW,209,0.0,2.0,100,0.00,,,0.00,WSDL version 342,2013-01-13 23:19:00,
2013-01-13 18:24:00,46.6,46.6,29.44,WSW,248,0.0,0.0,100,-99.99,,,-99.99,WSDL version 342,2013-01-13 23:24:00,
2013-01-13 18:29:00,46.6,46.6,29.44,SSW,203,0.0,0.0,100,0.00,,,0.00,WSDL version 342,2013-01-13 23:29:00,
2013-01-13 18:34:00,46.6,46.6,29.44,SSW,212,0.0,0.0,100,0.00,,,0.00,WSDL version 342,2013-01-13 23:34:00,
2013-01-13 18:39:00,46.8,46.8,29.44,SW,225,2.2,3.4,100,0.00,,,0.00,WSDL version 342,2013-01-13 23:39:00,
2013-01-13 18:44:00,46.8,46.8,29.44,South,183,0.7,3.4,100,0.00,,,0.00,WSDL version 342,2013-01-13 23:44:00,
2013-01-13 18:49:00,46.8,46.8,29.44,SSE,167,1.3,2.9,100,-99.99,,,-99.99,WSDL version 342,2013-01-13 23:49:00,
2013-01-13 18:54:00,46.8,46.8,29.44,SW,235,1.1,2.9,100,-99.99,,,-99.99,WSDL version 342,2013-01-13 23:54:00,
2013-01-13 18:59:00,46.9,46.9,29.44,SW,214,0.4,2.2,100,-99.99,,,-99.99,WSDL version 342,2013-01-13 23:59:00,
2013-01-13 19:04:00,46.9,46.9,29.44,SSW,208,1.1,2.2,100,-99.99,,,-99.99,WSDL version 342,2013-01-14 00:04:00,
2013-01-13 19:09:00,46.9,46.9,29.44,SSW,211,2.1,4.3,100,0.00,,,0.00,WSDL version 342,2013-01-14 00:09:00,
2013-01-13 19:14:00,46.9,46.9,29.44,SW,231,2.0,4.3,100,-99.99,,,-99.99,WSDL version 342,2013-01-14 00:14:00,
2013-01-13 19:19:00,46.9,46.9,29.44,SSW,212,1.5,2.9,100,-99.99,,,-99.99,WSDL version 342,2013-01-14 00:19:00,
2013-01-13 19:24:00,46.9,46.9,29.44,SSW,199,0.7,3.4,100,-99.99,,,-99.99,WSDL version 342,2013-01-14 00:24:00,
2013-01-13 19:29:00,47.1,47.1,29.44,SW,225,1.0,3.4,100,-99.99,,,-99.99,WSDL version 342,2013-01-14 00:29:00,
2013-01-13 19:34:00,47.1,47.1,29.44,SW,217,1.7,3.8,100,-99.99,,,-99.99,WSDL version 342,2013-01-14 00:34:00,
2013-01-13 19:39:00,47.1,47.1,29.44,South,186,1.8,3.8,100,-99.99,,,-99.99,WSDL version 342,2013-01-14 00:39:00,
2013-01-13 19:44:00,47.1,47.1,29.44,SW,233,2.3,4.9,100,-99.99,,,-99.99,WSDL version 342,2013-01-14 00:44:00,
2013-01-13 19:50:00,47.1,47.1,29.44,West,270,1.0,3.8,100,-99.99,,,-99.99,WSDL version 342,2013-01-14 00:50:00,
2013-01-13 19:55:00,47.1,47.1,29.44,SSW,205,1.7,2.9,100,0.00,,,0.00,WSDL version 342,2013-01-14 00:55:00,
2013-01-13 20:00:00,47.1,47.1,29.44,SSW,203,0.4,2.9,100,0.00,,,0.00,WSDL version 342,2013-01-14 01:00:00,
2013-01-13 20:05:00,47.2,47.2,29.44,SW,223,1.1,2.9,100,0.00,,,0.00,WSDL version 342,2013-01-14 01:05:00,
2013-01-13 20:10:00,47.3,47.3,29.44,SW,218,1.1,2.9,100,0.00,,,0.00,WSDL version 342,2013-01-14 01:10:00,
2013-01-13 20:15:00,47.3,47.3,29.44,SSW,205,1.3,2.5,100,-99.99,,,-99.99,WSDL version 342,2013-01-14 01:15:00,
2013-01-13 20:21:00,47.3,47.3,29.44,SW,219,0.0,2.5,100,-99.99,,,-99.99,WSDL version 342,2013-01-14 01:21:00,
2013-01-13 20:26:00,47.3,47.3,29.44,SSW,208,1.2,2.9,100,0.00,,,0.00,WSDL version 342,2013-01-14 01:26:00,
2013-01-13 20:31:00,47.3,47.3,29.41,SSE,158,2.2,4.0,100,-99.99,,,-99.99,WSDL version 342,2013-01-14 01:31:00,
2013-01-13 20:36:00,47.3,47.3,29.41,WSW,241,1.8,4.0,100,-99.99,,,-99.99,WSDL version 342,2013-01-14 01:36:00,
2013-01-13 20:41:00,47.3,47.3,29.41,West,273,0.0,2.9,100,-99.99,,,-99.99,WSDL version 342,2013-01-14 01:41:00,
2013-01-13 20:46:00,47.1,47.1,29.41,SSW,203,0.0,2.9,100,-99.99,,,-99.99,WSDL version 342,2013-01-14 01:46:00,
2013-01-13 20:51:00,47.3,47.3,29.41,SSW,203,0.0,0.0,100,-99.99,,,-99.99,WSDL version 342,2013-01-14 01:51:00,
2013-01-13 20:56:00,47.3,47.3,29.41,West,259,0.0,0.0,100,-99.99,,,-99.99,WSDL version 342,2013-01-14 01:56:00,
2013-01-13 21:01:00,47.3,47.3,29.41,NW,315,0.0,0.0,100,-99.99,,,-99.99,WSDL version 342,2013-01-14 02:01:00,
2013-01-13 21:06:00,47.2,47.2,29.41,WSW,248,1.1,1.6,100,-99.99,,,-99.99,WSDL version 342,2013-01-14 02:06:00,
2013-01-13 21:11:00,47.1,47.1,29.41,WNW,302,1.8,2.5,100,-99.99,,,-99.99,WSDL version 342,2013-01-14 02:11:00,
2013-01-13 21:16:00,46.9,46.9,29.41,NW,315,0.0,2.5,100,-99.99,,,-99.99,WSDL version 342,2013-01-14 02:16:00,
2013-01-13 21:21:00,47.1,47.1,29.41,NW,315,0.0,1.3,100,-99.99,,,-99.99,WSDL version 342,2013-01-14 02:21:00,
2013-01-13 21:26:00,47.1,47.1,29.41,WNW,293,0.0,1.3,100,-99.99,,,-99.99,WSDL version 342,2013-01-14 02:26:00,
2013-01-13 21:31:00,47.1,47.1,29.41,WNW,293,0.0,1.3,100,-99.99,,,-99.99,WSDL version 342,2013-01-14 02:31:00,
2013-01-13 21:36:00,47.1,47.1,29.41,WNW,293,0.0,0.0,100,-99.99,,,-99.99,WSDL version 342,2013-01-14 02:36:00,
2013-01-13 21:41:00,47.0,47.0,29.41,WNW,293,0.7,2.0,100,-99.99,,,-99.99,WSDL version 342,2013-01-14 02:41:00,
2013-01-13 21:46:00,46.9,46.9,29.41,WNW,293,0.0,2.0,100,-99.99,,,-99.99,WSDL version 342,2013-01-14 02:46:00,
2013-01-13 21:51:00,46.9,46.9,29.41,WNW,293,0.0,1.1,100,-99.99,,,-99.99,WSDL version 342,2013-01-14 02:51:00,
2013-01-13 21:56:00,46.9,46.9,29.41,WNW,293,0.0,0.0,100,-99.99,,,-99.99,WSDL version 342,2013-01-14 02:56:00,
2013-01-13 22:01:00,46.9,46.9,29.41,WNW,293,0.0,0.0,100,-99.99,,,-99.99,WSDL version 342,2013-01-14 03:01:00,
2013-01-13 22:06:00,47.1,47.1,29.41,WNW,293,0.0,0.0,100,-99.99,,,-99.99,WSDL version 342,2013-01-14 03:06:00,
2013-01-13 22:11:00,47.0,47.0,29.41,ENE,68,0.0,0.0,100,-99.99,,,-99.99,WSDL version 342,2013-01-14 03:11:00,
2013-01-13 22:17:00,46.9,46.9,29.41,East,90,0.0,0.0,100,-99.99,,,-99.99,WSDL version 342,2013-01-14 03:17:00,
2013-01-13 22:22:00,47.0,47.0,29.41,East,90,0.0,0.0,100,-99.99,,,-99.99,WSDL version 342,2013-01-14 03:22:00,
2013-01-13 22:27:00,47.1,47.1,29.41,East,90,0.0,0.0,100,-99.99,,,-99.99,WSDL version 342,2013-01-14 03:27:00,
2013-01-13 22:32:00,47.1,47.1,29.44,East,90,0.0,0.0,100,-99.99,,,-99.99,WSDL version 342,2013-01-14 03:32:00,
2013-01-13 22:37:00,46.9,46.9,29.44,East,90,0.0,0.0,100,-99.99,,,-99.99,WSDL version 342,2013-01-14 03:37:00,
2013-01-13 22:42:00,46.9,46.9,29.44,East,90,0.0,0.0,100,-99.99,,,-99.99,WSDL version 342,2013-01-14 03:42:00,
2013-01-13 22:47:00,46.9,46.9,29.41,East,90,0.0,0.0,100,-99.99,,,-99.99,WSDL version 342,2013-01-14 03:47:00,
2013-01-13 22:52:00,46.9,46.9,29.41,East,90,0.0,0.0,100,-99.99,,,-99.99,WSDL version 342,2013-01-14 03:52:00,
2013-01-13 22:57:00,46.9,46.9,29.41,East,90,0.0,0.0,100,-99.99,,,-99.99,WSDL version 342,2013-01-14 03:57:00,
2013-01-13 23:02:00,46.8,46.8,29.41,East,90,0.0,0.0,100,-99.99,,,-99.99,WSDL version 342,2013-01-14 04:02:00,
2013-01-13 23:07:00,46.8,46.8,29.41,East,90,0.0,0.0,100,-99.99,,,-99.99,WSDL version 342,2013-01-14 04:07:00,
2013-01-13 23:12:00,46.7,46.7,29.41,ESE,113,0.2,1.6,100,-99.99,,,-99.99,WSDL version 342,2013-01-14 04:12:00,
2013-01-13 23:17:00,46.6,46.6,29.41,East,98,0.3,1.6,100,-99.99,,,-99.99,WSDL version 342,2013-01-14 04:17:00,
2013-01-13 23:22:00,46.5,46.5,29.41,East,90,1.0,2.2,100,-99.99,,,-99.99,WSDL version 342,2013-01-14 04:22:00,
2013-01-13 23:28:00,46.4,46.4,29.41,East,101,0.0,2.2,100,-99.99,,,-99.99,WSDL version 342,2013-01-14 04:28:00,
2013-01-13 23:33:00,46.4,46.4,29.41,ENE,68,0.7,2.7,100,-99.99,,,-99.99,WSDL version 342,2013-01-14 04:33:00,
2013-01-13 23:38:00,46.4,46.4,29.41,SE,135,0.4,2.7,100,-99.99,,,-99.99,WSDL version 342,2013-01-14 04:38:00,
2013-01-13 23:43:00,46.4,46.4,29.41,ENE,63,0.0,1.3,100,-99.99,,,-99.99,WSDL version 342,2013-01-14 04:43:00,
2013-01-13 23:48:00,46.2,46.2,29.38,SSE,158,1.9,2.7,100,-99.99,,,-99.99,WSDL version 342,2013-01-14 04:48:00,
2013-01-13 23:53:00,46.2,46.2,29.38,SE,129,1.8,2.7,100,-99.99,,,-99.99,WSDL version 342,2013-01-14 04:53:00,
2013-01-13 23:58:00,46.2,46.2,29.38,NNE,23,0.8,2.7,100,-99.99,,,-99.99,WSDL version 342,2013-01-14 04:58:00,